Torna al catalogo

STARLINK-32092

AttivoComunicazioniVLEO
NORAD 59700·PAYLOAD·🇺🇸 United States

Lanciato May 8, 2024 da Cape Canaveral Space Force Station

Loading…

Prossimi Passaggi (prossime 24 ore)

TLE

AggiornatoSource: CelesTrak SupGP

Epoca: Sep 14, 2026, 21:20 UTC

1 59700C 24086U   26257.88937500  .00030944  00000+0  11212-2 0  2578
2 59700  43.0037  71.5011 0001437 276.5044 188.7342 15.27551295    14

Traccia STARLINK-32092 in tempo reale con AllMySat

Download on the App Store